This demonstration page uses our WeatherBlox Daily Observations layout. Learn more.

Left ArrowRight Arrow

Hourly Observations for July 9, 2018

Temp ( °F °C ) Dew Point ( °F °C ) Humidity (%) Winds ( mph kmh ) Pressure ( in mb ) Visibility ( mi km ) Precip ( " mm )
12:53 am 00:53 Clear 74 23.3 46 7.8 37 37 NNW 3 6 29.92 1013 10 16 0.00 0.00
1:53 am 01:53 Clear 76 24.4 43 6.1 31 31 N 6 9 29.93 1013 10 16 0.00 0.00
2:53 am 02:53 Clear 70 21.1 47 8.3 44 44 Calm 29.93 1014 10 16 0.00 0.00
3:53 am 03:53 Clear 68 20 48 8.9 49 49 Calm 29.94 1014 10 16 0.00 0.00
4:53 am 04:53 Clear 66 18.9 49 9.4 54 54 NNE 3 6 29.95 1014 10 16 0.00 0.00
5:53 am 05:53 Sunny 65 18.3 49 9.4 56 56 Calm 29.96 1015 10 16 0.00 0.00
6:53 am 06:53 Sunny 66 18.9 49 9.4 54 54 Calm 29.98 1015 10 16 0.00 0.00
7:53 am 07:53 Sunny 73 22.8 48 8.9 41 41 Calm 29.99 1016 10 16 0.00 0.00
8:53 am 08:53 Sunny 79 26.1 48 8.9 34 34 Calm 30.00 1016 10 16 0.00 0.00
9:53 am 09:53 Sunny 83 28.3 46 7.8 27 27 E 5 7 30.00 1016 10 16 0.00 0.00
10:53 am 10:53 Sunny 86 30 44 6.7 23 23 ESE 3 6 29.99 1016 10 16 0.00 0.00
11:53 am 11:53 Sunny 90 32.2 42 5.6 19 19 S 3 6 29.98 1015 10 16 0.00 0.00
12:53 pm 12:53 Sunny 93 33.9 40 4.4 16 16 SSW 7 11 29.97 1015 10 16 0.00 0.00
1:53 pm 13:53 Sunny 97 36.1 37 2.8 12 12 VRB 3 6 29.95 1014 10 16 0.00 0.00
2:53 pm 14:53 Sunny 99 37.2 35 1.7 11 11 S 9 15 29.93 1014 10 16 0.00 0.00
3:53 pm 15:53 Sunny 99 37.2 34 1.1 10 10 SSE 12 19 29.92 1013 10 16 0.00 0.00
4:53 pm 16:53 Sunny 100 37.8 36 2.2 11 11 SE 16 26 29.90 1012 10 16 0.00 0.00
5:53 pm 17:53 Sunny 100 37.8 36 2.2 11 11 SSE 16 26 29.89 1012 10 16 0.00 0.00
6:53 pm 18:53 Sunny 97 36.1 44 6.7 16 16 SSE 14 22 29.88 1012 10 16 0.00 0.00
7:53 pm 19:53 Sunny 94 34.4 39 3.9 15 15 S 14 22 29.88 1012 10 16 0.00 0.00
8:53 pm 20:53 Clear 92 33.3 38 3.3 15 15 W 7 11 29.90 1013 10 16 0.00 0.00
9:53 pm 21:53 Clear 86 30 39 3.9 19 19 W 5 7 29.92 1013 10 16 0.00 0.00
10:53 pm 22:53 Clear 80 26.7 42 5.6 26 26 Calm 29.93 1014 10 16 0.00 0.00
11:53 pm 23:53 Clear 81 27.2 39 3.9 22 22 W 5 7 29.93 1014 10 16 0.00 0.00

Powered by AerisWeather